FREGAT DEB, 45971

Orbit data source: Space-Track

FREGAT DEB, 45971 is space debris in LEO originally from a launch on Mon, 18 Jul 2011 UTC launched from the Tyuratam Missile And Space Complex (TTMTR). Debris objects in space refer to the collection of defunct objects orbiting the Earth. Examples of debris include non-operational satellites, rocket bodies, and fragments generated from explosions, collisions, or faulty payload assembly.

Loading next visibility...
Identifier
45971, 2011-037GC
Orbit
LEO
Country
Flag of CISCIS
Related business
Manufacturer
Lavochkin
Mission
Spacecraft
Bus & Motor
Unknown
Mass
Unknown
Launch date (UTC)
2011-07-18 (14 years ago)
Launch vehicle
Unknown
Launch site
Tyuratam Missile And Space Complex (TTMTR)
Object type
Payload
Rocket body
Debris
Shape & HBR
Unknown shape, 0.1 m
Radar Cross Section
Small (<0.1 m²)

Expand to show TLE details & history
Last TLE update: 3 days ago

TLE from 3 days ago
0 FREGAT DEB
1 45971U 11037GC  25303.63864879  .00018988  00000-0  18305-2 0  9995
2 45971  51.4592  64.4026 1170714 317.7745  33.8487 12.94585736238849
Epoch: 2025-10-30T15:19Z
TLE epoch observation values (Epoch: 2025-10-30T15:19:39.255Z)
Latitude
0.00003°
Longitude
155.29451°
Altitude
577.072 km
Speed
7.914 km/s
True Right ascension
04h 17m 36s
True Declination
0° 00' 00"
Sunlit
Object was in full shadow at epoch
Visualization orbit readout
Latitude
Unknown
Longitude
Unknown
Altitude
Unknown
Speed
Unknown
Apparent Right ascension
Unknown
Apparent Declination
Unknown
Sunlit
N/A
Visualization observer readout
Local Sidereal Time
12:03:03
Azimuth
Unknown
Elevation
Unknown
Doppler factor
Unknown
Orbital elements
Apogee altitude
2,180.867 km
Perigee altitude
386.864 km
Semi-major axis
7,662.002 km
Eccentricity
0.11707
Inclination
51.4592°
RAAN
64.4026°
Arg. of periapsis
317.7745°
True anomaly
42.31688°
Mean anomaly
33.8487°
Eccentric anomaly
37.97617°
Mean motion
3.23616 °/min
Orbital period
111.24 mins
BSTAR
0.0018305
Loading maneuver chart data...
Computing Atmospheric mass density...
Loading historical data...
Loading historical data...
Loading historical data...
Loading historical data...
Loading historical data...
Loading historical data...
Loading historical data...

Documentation

Showing up to 5 results
|